Flag Weather past 2 weeks in Las Palmas, Canary Islands, Spain

Now
72 °F

Scattered clouds.


Feels Like: 75 °F
Forecast: N/A
Wind: 7 mph from East

Location: Las Palmas De Gran Canaria / Gando

Current Time: Nov 27, 2014 at 5:13:54 PM

Latest Report: Nov 27, 2014 at 4:30 PM


Visibility: N/A

Pressure: 29.86 "Hg

Humidity: 65%

Dew point: 59 °F

Location of Las PalmasLocation

Historic Weather in Las Palmas — Graph

°F

Las Palmas temperature yesterday

Maximum temperature yesterday: 77 °F (at 1:00 PM)
Minimum temperature yesterday: 66 °F (at 6:30 AM)
Average temperature yesterday: 70 °F

Past Weeks' High & Low Weather Summary

 TemperatureHumidityPressure
High81 °F (Nov 18, 2:00 PM)94% (Nov 15, 8:30 AM)30.24 "Hg (Nov 15, 8:30 AM)
Low61 °F (Nov 21, 3:30 AM)37% (Nov 22, 2:30 PM)29.62 "Hg (Nov 21, 3:00 AM)
Average70 °F71%29.97 "Hg
* Reported Nov 12 4:00 PM — Nov 27 4:00 PM, Las Palmas, Weather by CustomWeather, © 2014

Note: Actual official high and low records may vary slightly from our data, if they occured in-between our weather recording intervals... More about our weather records

Advertising

Las Palmas weather history for previous 24 hours

 ConditionsComfort  
Time TempWeatherWind HumidityBarometerVisibility
4:00 PM
Nov 27
72 °FPartly sunny.7 mph65%29.86 "HgN/A
3:30 PM72 °FPartly sunny.6 mph65%29.89 "HgN/A
3:00 PM72 °FPartly sunny.7 mph65%29.89 "HgN/A
2:30 PM72 °FPartly sunny.3 mph65%29.89 "HgN/A
2:00 PM70 °FPartly sunny.3 mph69%29.92 "HgN/A
1:30 PM70 °FPartly sunny.6 mph69%29.92 "HgN/A
1:00 PM70 °FPartly sunny.7 mph69%29.92 "HgN/A
12:30 PMN/APartly sunny.8 mphN/A29.92 "HgN/A
12:00 PMN/APartly sunny.10 mphN/A29.95 "HgN/A
11:30 AMN/AScattered clouds.14 mphN/A29.98 "HgN/A
11:00 AM70 °FScattered clouds.13 mph64%29.98 "HgN/A
10:30 AM72 °FScattered clouds.12 mph57%30.01 "HgN/A
10:00 AM72 °FScattered clouds.8 mph53%30.01 "HgN/A
9:30 AM68 °FScattered clouds.9 mph64%30.01 "HgN/A
9:00 AM66 °FScattered clouds.14 mph73%30.01 "HgN/A
8:30 AM66 °FScattered clouds.12 mph73%29.98 "HgN/A
8:00 AM66 °FScattered clouds.6 mph68%29.98 "HgN/A
7:30 AM66 °FPassing clouds.8 mph73%29.98 "HgN/A
7:00 AM66 °FPassing clouds.5 mph73%29.98 "HgN/A
6:30 AM66 °FPassing clouds.13 mph73%29.98 "HgN/A
6:00 AM66 °FPassing clouds.12 mph73%29.98 "HgN/A
5:30 AM66 °FPassing clouds.13 mph73%29.98 "HgN/A
5:00 AM66 °FPassing clouds.13 mph68%29.98 "HgN/A
4:30 AM66 °FPassing clouds.15 mph68%30.01 "HgN/A
4:00 AM68 °FPassing clouds.14 mph64%30.01 "HgN/A
3:30 AM68 °FPassing clouds.10 mph64%30.01 "HgN/A
2:30 AM66 °FPassing clouds.18 mph78%30.01 "HgN/A
2:00 AM66 °FPassing clouds.13 mph68%30.04 "HgN/A
1:30 AM66 °FPassing clouds.6 mph60%30.01 "HgN/A
1:00 AM66 °FPassing clouds.14 mph56%30.04 "HgN/A
12:30 AM66 °FPassing clouds.9 mph56%30.04 "HgN/A
11:30 PM
Nov 26
68 °FPassing clouds.10 mph69%30.04 "HgN/A
11:00 PM66 °FPassing clouds.12 mph78%30.04 "HgN/A
10:30 PM68 °FLight rain. Passing clouds.7 mph78%30.07 "Hg5 mi
10:00 PM68 °FPassing clouds.2 mph73%30.04 "HgN/A
9:30 PM68 °FPassing clouds.7 mph73%30.07 "HgN/A
9:00 PM68 °FPassing clouds.7 mph73%30.07 "HgN/A
8:30 PM70 °FPassing clouds.8 mph69%30.07 "HgN/A
8:00 PM70 °FPassing clouds.2 mph69%30.07 "HgN/A
7:30 PM70 °FPassing clouds.No wind69%30.07 "HgN/A
7:00 PM70 °FPassing clouds.1 mph69%30.07 "HgN/A
6:30 PM72 °FPassing clouds.2 mph65%30.04 "HgN/A
6:00 PM72 °FPassing clouds.6 mph65%30.04 "HgN/A
5:30 PM73 °FScattered clouds.3 mph57%30.04 "HgN/A
5:00 PM72 °FScattered clouds.12 mph61%30.07 "HgN/A
Weather by CustomWeather, © 2014

See weather overviewHow to use our weather pages